Погода в Губарях

Россия / Воронежская область     51°30′49″N   42°33′08″E
темп.,
°C
ветер,
м/с
пор.,
м/с
влажн.,
%
обл.,
%
осадки,
мм/ч
давл.,
гПа
погр.,
м
10 апреля, сб
сб1000:00+3ссв4969100 0.0 1025187
03:00+2ссв41076100 0.0 1025270
06:00+3ссв51372100 0.0 1025501
09:00+4ссв61181100 0.6 1024454
12:00+4ссв71282100 0.1 1024549
15:00+5ссв71281100 0.1 1023540
18:00+4с61187100 0.0 1023467
21:00+4с5119144 0.0 1024355
11 апреля, вс
вс1100:00+3с5129491 0.0 1024322
03:00+3с5139495 0.0 1025351
06:00+2ссв61495100 0.0 1025396
09:00+6ссв81386100 0.0 1026529
12:00+8ссв71285100 0.3 1026591
15:00+9св7981100 0.4 1026655
18:00+9св5984100 0.0 1026414
21:00+7ссв499494 0.0 1026188
12 апреля, пн
пн1200:00+6ссв489599 0.0 1026146
03:00+6св479494 0.0 1026113
06:00+7всв359077 0.0 102676
09:00+15вюв5105392 0.0 1026357
12:00+20вюв7103467 0.0 1025986
15:00+21юв8103492 0.0 10251607
18:00+18вюв5104575 0.0 1025241
21:00+13вюв413615 0.0 1027215
13 апреля, вт
вт1300:00+10вюв4136355 0.0 1027208
03:00+9вюв5136147 0.0 1027237
06:00+8вюв41169100 0.0 1027191
09:00+14вюв6105199 0.0 1026339
12:00+19юв7935100 0.0 1025895
15:00+21юв710315 0.0 10241584
18:00+18вюв611435 0.0 1024310
21:00+13вюв5145529 0.0 1025256
14 апреля, ср
ср1400:00+12вюв5135938 0.0 1024211
03:00+9вюв4126211 0.0 1024179
06:00+8вюв41067100 0.0 1023149
09:00+15юв5948100 0.0 1023377
12:00+18юв6737100 0.0 1022934
15:00+20ююв5729100 0.0 10212104
18:00+17юв3344100 0.0 102047
21:00+13вюв455434 0.0 102057